{"data":{"norad_id":64199,"epoch":"2026-09-21T23:17:15.927072Z","epoch_age_seconds":65044,"freshness":"FRESH","line1":"1 64199U 25115A   26264.97032323  .00003325  00000+0  13760-3 0  9994","line2":"2 64199  97.4492 342.9337 0018843  17.4044 342.7836 15.24502019 73182","mean_motion":15.24502019,"eccentricity":0.0018843,"inclination_deg":97.4492,"raan_deg":342.9337,"arg_perigee_deg":17.4044,"mean_anomaly_deg":342.7836,"bstar":0.0001376,"rev_number":7318,"period_min":94.457073985679,"perigee_km":479.33525295236,"apogee_km":505.22711091279,"semimajor_km":6870.4181819326,"source":"CELESTRAK","updated_at":"2026-09-22T09:00:29.617061Z"}}